Location: Namasale
(1.5000°N, 32.6167°E)
Time: 19:08:19
(UTC+00:00)

Vanguard 1 Rocket - Pass Details

Date: 19 April 2021
Orbit: 652 x 4224 km, 34.3° (Epoch: 10 May)

Event Time Altitude Azimuth Distance (km) Brightness Sun altitude
Rises 08:47:21 0° 248° (WSW) 6,686 11.6 71.9°
Reaches altitude 10° 08:53:01 10° 254° (WSW) 5,038 11.1 73.1°
Maximum altitude 09:04:18 37° 316° (NW) 2,159 9.9 75.3°
Drops below altitude 10° 09:10:40 10° 23° (NNE) 2,830 10.3 76.4°
Sets 09:12:57 0° 33° (NNE) 3,523 10.6 76.8°
